Riverside March, CA

3:56 AM PDT on July 21, 2017 (GMT -0700)
March Air Reserve Base

Weather History for KRIV - October, 2013

Change the Weather History Date:

Monday, October 7, 2013

  Actual Average Record
Temperature  
Mean Temperature 68 °F -  
Max Temperature 87 °F 82 °F 102 °F (1996)
Min Temperature 50 °F 53 °F 42 °F (2011)
Cooling Degree Days 2    
Growing Degree Days 18 (Base 50)    
Moisture  
Dew Point 25 °F    
Average Humidity 25    
Maximum Humidity 54    
Minimum Humidity 7    
Precipitation  
Precipitation 0.00 in - - ()
Sea Level Pressure  
Sea Level Pressure 29.94 in    
Wind  
Wind Speed 3 mph (NNW)    
Max Wind Speed 16 mph    
Max Gust Speed -    
Visibility 10 miles    
Events      
Averages and records for this station are not official NWS values.
T = Trace of Precipitation, MM = Missing Value Source: NWS Daily Summary

Daily Weather History Graph

Daily Weather History Graph

Search for Another Location

Airport or City:

Trip Planner

Search our weather history database for the weather conditions in past years. The results will help you decide how hot, cold, wet, or windy it might be!

Date:

Astronomy

Oct. 07, 2013 Rise Set
Actual Time 6:48 AM PDT 6:24 PM PDT
Civil Twilight 6:23 AM PDT 6:49 PM PDT
Nautical Twilight 5:54 AM PDT 7:18 PM PDT
Astronomical Twilight 5:25 AM PDT 7:47 PM PDT
Moon 9:34 AM PDT (10/7) 8:22 PM PDT (10/7)
Length of Visible Light 12h 26m
Length of Day
11h 36m
Waxing Crescent, 9% of the Moon is Illuminated
Oct 7
Waxing Crescent
Oct 11
First Quarter
Oct 18
Full
Oct 26
Last Quarter
Nov 3
New

Hourly Weather History & Observations

Time (PDT) Temp. Dew Point Humidity Pressure Visibility Wind Dir Wind Speed Gust Speed Precip Events Conditions
12:58 AM 56.1 °F 18.9 °F 23% 29.97 in 10.0 mi Calm Calm - N/A   Clear
1:58 AM 52.9 °F 19.4 °F 27% 29.97 in 10.0 mi Calm Calm - N/A   Scattered Clouds
2:58 AM 50.0 °F 16.3 °F 26% 29.96 in 10.0 mi Calm Calm - N/A   Clear
3:58 AM 50.4 °F 18.7 °F 29% 29.95 in 10.0 mi Calm Calm - N/A   Clear
4:58 AM 52.3 °F 18.3 °F 26% 29.95 in 10.0 mi Calm Calm - N/A   Mostly Cloudy
5:58 AM 53.6 °F 20.5 °F 27% 29.95 in 10.0 mi Calm Calm - N/A   Mostly Cloudy
6:58 AM 50.5 °F 21.0 °F 31% 29.97 in 10.0 mi Calm Calm - N/A   Mostly Cloudy
7:58 AM 57.9 °F 23.9 °F 27% 29.99 in 10.0 mi ESE 4.6 mph - N/A   Clear
8:58 AM 64.0 °F 23.9 °F 22% 30.00 in 10.0 mi ESE 2.3 mph - N/A   Mostly Cloudy
9:55 AM 72.0 °F 17.4 °F 13% 30.01 in 10.0 mi ESE 3.5 mph - N/A   Mostly Cloudy
10:58 AM 77.2 °F 17.4 °F 11% 29.97 in 10.0 mi SE 3.5 mph - N/A   Partly Cloudy
11:58 AM 81.3 °F 15.1 °F 8% 29.95 in 10.0 mi SE 4.6 mph - N/A   Clear
12:58 PM 84.7 °F 14.0 °F 7% 29.93 in 10.0 mi Variable 4.6 mph - N/A   Clear
1:58 PM 85.3 °F 18.0 °F 8% 29.91 in 10.0 mi NW 15.0 mph - N/A   Clear
2:58 PM 85.6 °F 23.7 °F 10% 29.90 in 10.0 mi NNW 12.7 mph - N/A   Clear
3:58 PM 85.1 °F 26.8 °F 12% 29.89 in 10.0 mi WNW 11.5 mph - N/A   Clear
4:58 PM 82.8 °F 21.4 °F 10% 29.89 in 10.0 mi WNW 16.1 mph - N/A   Clear
5:58 PM 78.4 °F 32.0 °F 18% 29.90 in 10.0 mi NW 11.5 mph - N/A   Clear
6:58 PM 70.7 °F 38.1 °F 30% 29.91 in 10.0 mi WNW 8.1 mph - N/A   Clear
7:58 PM 68.9 °F 37.6 °F 32% 29.92 in 10.0 mi NE 3.5 mph - N/A   Clear
8:58 PM 63.1 °F 37.2 °F 38% 29.94 in 10.0 mi North 2.3 mph - N/A   Clear
9:58 PM 58.6 °F 41.2 °F 52% 29.94 in 10.0 mi WNW 5.8 mph - N/A   Clear
10:58 PM 59.4 °F 42.8 °F 54% 29.94 in 10.0 mi WNW 1.2 mph - N/A   Clear
11:58 PM 55.2 °F 38.7 °F 54% 29.92 in 10.0 mi Calm Calm - N/A   Clear